Time,TemperatureF,DewpointF,PressureIn,WindDirection,WindDirectionDegrees,WindSpeedMPH,WindSpeedGustMPH,Humidity,HourlyPrecipIn,Conditions,Clouds,dailyrainin,SoftwareType,DateUTC
2013-05-28 00:00:00,63.4,60.0,30.09,ESE,106,0.0,0.0,87,0.00,,,0.00,weatherlink.com 1.10,2013-05-28 05:00:00,
2013-05-28 00:16:00,63.4,59.0,30.09,ENE,71,0.0,0.0,86,0.00,,,0.00,weatherlink.com 1.10,2013-05-28 05:16:00,
2013-05-28 00:31:00,62.5,59.0,30.08,ENE,71,0.0,0.0,88,0.00,,,0.00,weatherlink.com 1.10,2013-05-28 05:31:00,
2013-05-28 00:46:00,62.0,59.0,30.08,ENE,71,0.0,0.0,89,0.00,,,0.00,weatherlink.com 1.10,2013-05-28 05:46:00,
2013-05-28 01:01:00,61.4,59.0,30.07,ENE,70,0.0,0.0,90,0.00,,,0.00,weatherlink.com 1.10,2013-05-28 06:01:00,
2013-05-28 01:16:00,61.1,59.0,30.08,ENE,70,0.0,0.0,91,0.00,,,0.00,weatherlink.com 1.10,2013-05-28 06:16:00,
2013-05-28 01:31:00,60.6,58.0,30.08,ENE,71,0.0,0.0,92,0.00,,,0.00,weatherlink.com 1.10,2013-05-28 06:31:00,
2013-05-28 01:46:00,60.3,58.0,30.08,ENE,70,0.0,0.0,93,0.00,,,0.00,weatherlink.com 1.10,2013-05-28 06:46:00,
2013-05-28 02:01:00,60.1,58.0,30.08,ENE,70,0.0,0.0,93,0.00,,,0.00,weatherlink.com 1.10,2013-05-28 07:01:00,
2013-05-28 02:16:00,59.7,58.0,30.08,ENE,70,0.0,0.0,94,0.00,,,0.00,weatherlink.com 1.10,2013-05-28 07:16:00,
2013-05-28 02:31:00,59.5,58.0,30.07,ENE,70,0.0,0.0,94,0.00,,,0.00,weatherlink.com 1.10,2013-05-28 07:31:00,
2013-05-28 02:46:00,59.4,58.0,30.07,ENE,71,0.0,0.0,94,0.00,,,0.00,weatherlink.com 1.10,2013-05-28 07:46:00,
2013-05-28 03:01:00,59.3,58.0,30.07,ENE,71,0.0,0.0,95,0.00,,,0.00,weatherlink.com 1.10,2013-05-28 08:01:00,
2013-05-28 03:16:00,62.1,60.0,30.08,East,92,0.0,5.0,94,0.00,,,0.00,weatherlink.com 1.10,2013-05-28 08:16:00,
2013-05-28 03:31:00,64.1,62.0,30.08,East,96,2.0,2.0,91,0.00,,,0.00,weatherlink.com 1.10,2013-05-28 08:31:00,
2013-05-28 03:46:00,64.5,62.0,30.08,SE,136,0.0,1.0,90,0.00,,,0.00,weatherlink.com 1.10,2013-05-28 08:46:00,
2013-05-28 04:01:00,64.9,62.0,30.07,ESE,108,0.0,3.0,90,0.00,,,0.00,weatherlink.com 1.10,2013-05-28 09:01:00,
2013-05-28 04:16:00,65.1,62.0,30.08,ESE,108,0.0,2.0,90,0.00,,,0.00,weatherlink.com 1.10,2013-05-28 09:16:00,
2013-05-28 04:31:00,65.0,62.0,30.08,SE,141,0.0,1.0,90,0.00,,,0.00,weatherlink.com 1.10,2013-05-28 09:31:00,
2013-05-28 04:46:00,64.7,62.0,30.08,East,84,1.0,3.0,91,0.00,,,0.00,weatherlink.com 1.10,2013-05-28 09:46:00,
2013-05-28 05:01:00,64.7,62.0,30.07,East,87,0.0,2.0,92,0.00,,,0.00,weatherlink.com 1.10,2013-05-28 10:01:00,
2013-05-28 05:16:00,64.9,63.0,30.08,ENE,71,1.0,2.0,92,0.00,,,0.00,weatherlink.com 1.10,2013-05-28 10:16:00,
2013-05-28 05:31:00,64.8,63.0,30.08,East,86,0.0,2.0,93,0.00,,,0.00,weatherlink.com 1.10,2013-05-28 10:31:00,
2013-05-28 05:46:00,64.6,63.0,30.09,SE,132,0.0,1.0,93,0.00,,,0.00,weatherlink.com 1.10,2013-05-28 10:46:00,
2013-05-28 06:01:00,64.7,63.0,30.09,SSE,153,0.0,2.0,93,0.00,,,0.00,weatherlink.com 1.10,2013-05-28 11:01:00,
2013-05-28 06:16:00,64.9,63.0,30.09,SE,127,0.0,4.0,93,0.00,,,0.00,weatherlink.com 1.10,2013-05-28 11:16:00,
2013-05-28 06:31:00,65.6,64.0,30.09,East,91,0.0,5.0,93,0.00,,,0.00,weatherlink.com 1.10,2013-05-28 11:31:00,
2013-05-28 06:46:00,67.7,64.0,30.09,SSE,153,0.0,6.0,89,0.00,,,0.00,weatherlink.com 1.10,2013-05-28 11:46:00,
2013-05-28 07:01:00,69.0,65.0,30.09,SSE,158,0.0,4.0,87,0.00,,,0.00,weatherlink.com 1.10,2013-05-28 12:01:00,
2013-05-28 07:16:00,70.3,66.0,30.09,ESE,103,2.0,6.0,86,0.00,,,0.00,weatherlink.com 1.10,2013-05-28 12:16:00,
2013-05-28 07:31:00,71.8,67.0,30.09,SSE,150,1.0,6.0,84,0.00,,,0.00,weatherlink.com 1.10,2013-05-28 12:31:00,
2013-05-28 07:46:00,72.9,68.0,30.09,SW,231,3.0,7.0,83,0.00,,,0.00,weatherlink.com 1.10,2013-05-28 12:46:00,
2013-05-28 08:02:00,73.4,68.0,30.09,NE,40,2.0,8.0,82,0.00,,,0.00,weatherlink.com 1.10,2013-05-28 13:02:00,
2013-05-28 08:17:00,75.7,69.0,30.09,SE,126,1.0,5.0,80,0.00,,,0.00,weatherlink.com 1.10,2013-05-28 13:17:00,
2013-05-28 08:32:00,76.2,69.0,30.09,SW,218,2.0,8.0,79,0.00,,,0.00,weatherlink.com 1.10,2013-05-28 13:32:00,
2013-05-28 08:47:00,77.6,70.0,30.10,SW,214,2.0,5.0,77,0.00,,,0.00,weatherlink.com 1.10,2013-05-28 13:47:00,
2013-05-28 09:02:00,78.6,70.0,30.10,SE,145,2.0,7.0,75,0.00,,,0.00,weatherlink.com 1.10,2013-05-28 14:02:00,
2013-05-28 09:17:00,79.2,70.0,30.10,ENE,75,2.0,7.0,73,0.00,,,0.00,weatherlink.com 1.10,2013-05-28 14:17:00,
2013-05-28 09:32:00,79.8,70.0,30.09,South,188,5.0,6.0,72,0.00,,,0.00,weatherlink.com 1.10,2013-05-28 14:32:00,
2013-05-28 09:47:00,81.2,71.0,30.09,ESE,103,2.0,7.0,71,0.00,,,0.00,weatherlink.com 1.10,2013-05-28 14:47:00,
2013-05-28 10:02:00,81.5,70.0,30.09,South,170,7.0,9.0,69,0.00,,,0.00,weatherlink.com 1.10,2013-05-28 15:02:00,
2013-05-28 10:17:00,82.9,70.0,30.09,ESE,112,3.0,7.0,65,0.00,,,0.00,weatherlink.com 1.10,2013-05-28 15:17:00,
2013-05-28 10:32:00,83.0,70.0,30.09,SSE,166,4.0,10.0,65,0.00,,,0.00,weatherlink.com 1.10,2013-05-28 15:32:00,
2013-05-28 10:47:00,83.5,70.0,30.09,South,176,1.0,10.0,63,0.00,,,0.00,weatherlink.com 1.10,2013-05-28 15:47:00,
2013-05-28 11:02:00,85.8,71.0,30.09,East,91,3.0,6.0,61,0.00,,,0.00,weatherlink.com 1.10,2013-05-28 16:02:00,
2013-05-28 11:17:00,85.6,69.0,30.09,SSW,195,1.0,9.0,58,0.00,,,0.00,weatherlink.com 1.10,2013-05-28 16:17:00,
2013-05-28 11:32:00,85.6,69.0,30.09,East,96,5.0,7.0,57,0.00,,,0.00,weatherlink.com 1.10,2013-05-28 16:32:00,
2013-05-28 11:47:00,86.2,67.0,30.08,NW,307,1.0,5.0,53,0.00,,,0.00,weatherlink.com 1.10,2013-05-28 16:47:00,
2013-05-28 12:02:00,86.9,67.0,30.09,ESE,115,5.0,6.0,52,0.00,,,0.00,weatherlink.com 1.10,2013-05-28 17:02:00,
2013-05-28 12:17:00,87.2,68.0,30.08,SSE,152,2.0,6.0,53,0.00,,,0.00,weatherlink.com 1.10,2013-05-28 17:17:00,
2013-05-28 12:32:00,86.6,68.0,30.08,East,89,0.0,8.0,54,0.00,,,0.00,weatherlink.com 1.10,2013-05-28 17:32:00,
2013-05-28 12:47:00,87.1,68.0,30.07,NE,40,3.0,5.0,54,0.00,,,0.00,weatherlink.com 1.10,2013-05-28 17:47:00,
2013-05-28 13:02:00,88.8,68.0,30.06,ENE,58,6.0,9.0,51,0.00,,,0.00,weatherlink.com 1.10,2013-05-28 18:02:00,
2013-05-28 13:17:00,88.3,68.0,30.06,NW,326,1.0,8.0,51,0.00,,,0.00,weatherlink.com 1.10,2013-05-28 18:17:00,
2013-05-28 13:32:00,88.8,68.0,30.06,SSE,152,4.0,9.0,50,0.00,,,0.00,weatherlink.com 1.10,2013-05-28 18:32:00,
2013-05-28 13:47:00,89.3,66.0,30.05,East,82,2.0,7.0,47,0.00,,,0.00,weatherlink.com 1.10,2013-05-28 18:47:00,
2013-05-28 14:02:00,88.4,67.0,30.04,East,90,5.0,11.0,50,0.00,,,0.00,weatherlink.com 1.10,2013-05-28 19:02:00,
2013-05-28 14:17:00,88.2,66.0,30.04,SE,132,3.0,12.0,48,0.00,,,0.00,weatherlink.com 1.10,2013-05-28 19:17:00,
2013-05-28 14:32:00,87.6,67.0,30.04,SE,138,1.0,9.0,50,0.00,,,0.00,weatherlink.com 1.10,2013-05-28 19:32:00,
2013-05-28 14:47:00,88.1,67.0,30.03,SSE,165,5.0,10.0,49,0.00,,,0.00,weatherlink.com 1.10,2013-05-28 19:47:00,
2013-05-28 15:02:00,88.6,68.0,30.03,SSW,198,0.0,4.0,50,0.00,,,0.00,weatherlink.com 1.10,2013-05-28 20:02:00,
2013-05-28 15:18:00,90.3,67.0,30.02,SE,137,3.0,5.0,46,0.00,,,0.00,weatherlink.com 1.10,2013-05-28 20:18:00,
2013-05-28 15:33:00,90.6,66.0,30.02,SSE,159,4.0,7.0,45,0.00,,,0.00,weatherlink.com 1.10,2013-05-28 20:33:00,
2013-05-28 15:48:00,89.6,66.0,30.02,ESE,103,3.0,7.0,46,0.00,,,0.00,weatherlink.com 1.10,2013-05-28 20:48:00,
2013-05-28 16:03:00,88.5,67.0,30.02,SW,218,1.0,6.0,49,0.00,,,0.00,weatherlink.com 1.10,2013-05-28 21:03:00,
2013-05-28 16:18:00,89.9,68.0,30.01,WNW,290,1.0,6.0,48,0.00,,,0.00,weatherlink.com 1.10,2013-05-28 21:18:00,
2013-05-28 16:33:00,90.3,67.0,30.01,ESE,102,6.0,11.0,46,0.00,,,0.00,weatherlink.com 1.10,2013-05-28 21:33:00,
2013-05-28 16:48:00,88.4,67.0,30.01,SSW,203,1.0,4.0,50,0.00,,,0.00,weatherlink.com 1.10,2013-05-28 21:48:00,
2013-05-28 17:03:00,88.2,67.0,30.01,South,184,2.0,11.0,50,0.00,,,0.00,weatherlink.com 1.10,2013-05-28 22:03:00,
2013-05-28 17:18:00,87.6,67.0,30.01,SE,127,4.0,10.0,51,0.00,,,0.00,weatherlink.com 1.10,2013-05-28 22:18:00,
2013-05-28 17:33:00,88.2,67.0,30.00,East,91,3.0,9.0,50,0.00,,,0.00,weatherlink.com 1.10,2013-05-28 22:33:00,
2013-05-28 17:48:00,86.8,67.0,30.01,SE,140,0.0,11.0,52,0.00,,,0.00,weatherlink.com 1.10,2013-05-28 22:48:00,
2013-05-28 18:03:00,85.9,68.0,30.01,ESE,110,0.0,5.0,55,0.00,,,0.00,weatherlink.com 1.10,2013-05-28 23:03:00,
2013-05-28 18:18:00,84.5,70.0,30.01,SE,131,2.0,6.0,61,0.00,,,0.00,weatherlink.com 1.10,2013-05-28 23:18:00,
2013-05-28 18:33:00,83.3,70.0,30.01,SE,145,2.0,7.0,64,0.00,,,0.00,weatherlink.com 1.10,2013-05-28 23:33:00,
2013-05-28 18:48:00,81.9,70.0,30.01,South,191,1.0,4.0,67,0.00,,,0.00,weatherlink.com 1.10,2013-05-28 23:48:00,
2013-05-28 19:03:00,80.5,70.0,30.01,SSE,166,1.0,4.0,70,0.00,,,0.00,weatherlink.com 1.10,2013-05-29 00:03:00,
2013-05-28 19:18:00,79.5,70.0,30.02,SE,128,0.0,3.0,73,0.00,,,0.00,weatherlink.com 1.10,2013-05-29 00:18:00,
2013-05-28 19:33:00,78.4,70.0,30.02,SE,124,1.0,4.0,76,0.00,,,0.00,weatherlink.com 1.10,2013-05-29 00:33:00,
2013-05-28 19:48:00,77.9,71.0,30.02,SW,222,0.0,2.0,78,0.00,,,0.00,weatherlink.com 1.10,2013-05-29 00:48:00,
2013-05-28 20:03:00,77.3,70.0,30.03,South,171,0.0,3.0,79,0.00,,,0.00,weatherlink.com 1.10,2013-05-29 01:03:00,
2013-05-28 20:18:00,76.5,70.0,30.03,SSE,158,0.0,4.0,81,0.00,,,0.00,weatherlink.com 1.10,2013-05-29 01:18:00,
2013-05-28 20:34:00,75.9,70.0,30.04,SE,142,0.0,2.0,82,0.00,,,0.00,weatherlink.com 1.10,2013-05-29 01:34:00,
2013-05-28 20:48:00,75.4,70.0,30.05,SSW,198,0.0,2.0,84,0.00,,,0.00,weatherlink.com 1.10,2013-05-29 01:48:00,
2013-05-28 21:03:00,75.1,70.0,30.05,SSW,193,0.0,3.0,84,0.00,,,0.00,weatherlink.com 1.10,2013-05-29 02:03:00,
2013-05-28 21:18:00,75.0,70.0,30.05,SSW,194,2.0,4.0,84,0.00,,,0.00,weatherlink.com 1.10,2013-05-29 02:18:00,
2013-05-28 21:33:00,74.4,69.0,30.06,SSW,212,0.0,2.0,84,0.00,,,0.00,weatherlink.com 1.10,2013-05-29 02:33:00,
2013-05-28 21:48:00,73.8,69.0,30.06,SE,131,0.0,0.0,85,0.00,,,0.00,weatherlink.com 1.10,2013-05-29 02:48:00,
2013-05-28 22:03:00,72.1,68.0,30.06,SE,131,0.0,0.0,88,0.00,,,0.00,weatherlink.com 1.10,2013-05-29 03:03:00,
2013-05-28 22:18:00,70.9,68.0,30.07,SE,131,0.0,0.0,90,0.00,,,0.00,weatherlink.com 1.10,2013-05-29 03:18:00,
2013-05-28 22:33:00,69.9,68.0,30.07,SE,131,0.0,0.0,92,0.00,,,0.00,weatherlink.com 1.10,2013-05-29 03:33:00,
2013-05-28 22:48:00,69.4,67.0,30.07,NE,49,0.0,1.0,93,0.00,,,0.00,weatherlink.com 1.10,2013-05-29 03:48:00,
2013-05-28 23:03:00,68.5,67.0,30.07,NE,46,0.0,0.0,94,0.00,,,0.00,weatherlink.com 1.10,2013-05-29 04:03:00,
2013-05-28 23:18:00,68.0,67.0,30.07,NE,49,0.0,0.0,95,0.00,,,0.00,weatherlink.com 1.10,2013-05-29 04:18:00,
2013-05-28 23:33:00,67.1,66.0,30.07,NE,48,0.0,0.0,95,0.00,,,0.00,weatherlink.com 1.10,2013-05-29 04:33:00,
2013-05-28 23:48:00,66.7,65.0,30.07,NE,47,0.0,0.0,95,0.00,,,0.00,weatherlink.com 1.10,2013-05-29 04:48:00,